Starlink 30570

operational
NORAD ID: 58095 Int'l Des: 2023-160 Owner: SPXS Country: US Constellation: starlink
LEOCIRCULAR

Über Starlink 30570

Beschreibung wird geladen...

Live-Position

3D-Globus wird geladen...

Nächste Überflüge

Höhenverlauf

Altitude vs Time

uPlot chart will show altitude changes over time

Zweizeiliger Elementsatz

1 58095U 23160W 25305.99411711 .00000909 00000-0 82356-4 0 9993
2 58095 43.0030 53.7321 0001356 267.6469 92.4218 15.02537953113714
Epoch: 1. Nov. 2025 • Age: 32 hours

Aktueller Status

Höhe 562.6 km
Geschwindigkeit 7.59 km/s
Subsatellitenpunkt 40.81°N, 7.16°W
Startdatum 18. Okt. 2023
Alter 2 years
Typ internet

Technische Details

Klassifizierung Payload
Masse 730.00 kg
Trockenmasse 700.00 kg
Gesamtmasse 730.00 kg
Länge 0.30 m
Durchmesser 4.10 m
Spannweite 29.00 m
Form Box + pan
Hersteller SPXS
Bus-Typ Starlink V2M
Phasenstatus In Orbit
Besitzer/Staat SPXS/US

Große Konstellationen

Loading constellations...